Ketchikan, AK

10:35 AM AKDT on October 19, 2018 (GMT -0800)
Ketchikan International

Weather History for PAKT - April, 2018

Change the Weather History Date:

Tuesday, April 17, 2018

  Actual Average Record
Temperature  
Mean Temperature 41 °F -  
Max Temperature 48 °F 48 °F 63 °F (1953)
Min Temperature 34 °F 35 °F 27 °F (1972)
Degree Days  
Heating Degree Days 24    
Moisture  
Dew Point 36 °F    
Average Humidity 80    
Maximum Humidity 96    
Minimum Humidity 62    
Precipitation  
Precipitation 0.03 in - - ()
Sea Level Pressure  
Sea Level Pressure 29.95 in    
Wind  
Wind Speed 4 mph (SE)    
Max Wind Speed 17 mph    
Max Gust Speed -    
Visibility 10 miles    
Events Rain    
Averages and records for this station are not official NWS values.
T = Trace of Precipitation, MM = Missing Value Source: NWS Daily Summary

Daily Weather History Graph

Daily Weather History Graph

Search for Another Location

Airport or City:

Astronomy

Apr. 17, 2018 Rise Set
Actual Time 5:37 AM AKDT 7:56 PM AKDT
Civil Twilight 4:57 AM AKDT 8:36 PM AKDT
Nautical Twilight 4:06 AM AKDT 9:28 PM AKDT
Astronomical Twilight 3:05 AM AKDT 10:30 PM AKDT
Moon 6:57 AM AKDT (4/17) 10:11 PM AKDT (4/17)
Length of Visible Light 15h 39m
Length of Day
14h 19m
Waxing Crescent, 4% of the Moon is Illuminated
Apr 17
Waxing Crescent
Apr 22
First Quarter
Apr 29
Full
May 7
Last Quarter
May 15
New

Hourly Weather History & Observations

Time (AKDT) Temp. Windchill Dew Point Humidity Pressure Visibility Wind Dir Wind Speed Gust Speed Precip Events Conditions
12:53 AM 36.0 °F - 34.0 °F 93% 29.80 in 10.0 mi Calm Calm - N/A   Clear
1:53 AM 35.1 °F - 32.0 °F 89% 29.81 in 10.0 mi Calm Calm - N/A   Clear
2:53 AM 35.1 °F - 32.0 °F 89% 29.82 in 10.0 mi Calm Calm - N/A   Scattered Clouds
3:53 AM 34.0 °F - 32.0 °F 92% 29.83 in 10.0 mi Calm Calm - N/A   Scattered Clouds
4:53 AM 34.0 °F - 32.0 °F 92% 29.84 in 10.0 mi Calm Calm - N/A   Clear
5:18 AM 34.0 °F - 33.1 °F 96% 29.84 in 10.0 mi Calm Calm - N/A   Mostly Cloudy
5:53 AM 34.0 °F - 32.0 °F 92% 29.86 in 10.0 mi Calm Calm - N/A   Overcast
6:53 AM 37.4 °F - 35.6 °F 93% 29.87 in 10.0 mi Calm Calm - N/A   Overcast
7:53 AM 39.2 °F - 37.4 °F 93% 29.89 in 10.0 mi Calm Calm - N/A   Mostly Cloudy
8:53 AM 44.6 °F 42.2 °F 37.4 °F 76% 29.91 in 10.0 mi East 4.6 mph - N/A   Mostly Cloudy
9:53 AM 46.4 °F 42.4 °F 35.6 °F 66% 29.92 in 10.0 mi ESE 8.1 mph - N/A   Mostly Cloudy
10:53 AM 48.2 °F - 35.6 °F 62% 29.94 in 10.0 mi ESE 13.8 mph - N/A   Mostly Cloudy
11:24 AM 44.6 °F 40.7 °F 37.4 °F 76% 29.95 in 9.0 mi Variable 6.9 mph - N/A Rain Light Rain
11:53 AM 42.8 °F 41.1 °F 37.4 °F 81% 29.97 in 6.0 mi SSE 3.5 mph - N/A Rain Light Rain
12:53 PM 44.6 °F 41.4 °F 39.2 °F 81% 29.98 in 10.0 mi SE 5.8 mph - N/A   Mostly Cloudy
1:53 PM 48.2 °F - 37.4 °F 66% 29.99 in 10.0 mi ESE 16.1 mph - N/A   Mostly Cloudy
2:53 PM 46.4 °F 39.5 °F 37.4 °F 71% 30.01 in 10.0 mi ESE 17.3 mph - N/A   Scattered Clouds
3:53 PM 46.4 °F 40.4 °F 33.8 °F 62% 30.02 in 10.0 mi SE 13.8 mph - N/A   Scattered Clouds
4:53 PM 46.4 °F 41.5 °F 33.8 °F 62% 30.03 in 10.0 mi SSE 10.4 mph - N/A   Mostly Cloudy
5:53 PM 46.4 °F 41.1 °F 35.6 °F 66% 30.04 in 10.0 mi SSE 11.5 mph - N/A   Mostly Cloudy
6:53 PM 46.4 °F 42.4 °F 35.6 °F 66% 30.04 in 10.0 mi SSE 8.1 mph - N/A   Scattered Clouds
7:53 PM 44.6 °F 39.7 °F 37.4 °F 76% 30.05 in 10.0 mi SE 9.2 mph - N/A   Partly Cloudy
8:53 PM 41.0 °F 38.0 °F 37.0 °F 86% 30.05 in 10.0 mi SE 4.6 mph - N/A   Overcast
9:53 PM 44.1 °F 40.1 °F 39.0 °F 82% 30.05 in 10.0 mi SSE 6.9 mph - 0.00 in Rain Light Rain
10:01 PM 44.1 °F 40.8 °F 39.0 °F 82% 30.05 in 10.0 mi SSE 5.8 mph - 0.00 in Rain Light Rain
10:53 PM 43.0 °F 38.8 °F 39.9 °F 89% 30.06 in 6.0 mi SSE 6.9 mph - 0.01 in Rain Light Rain
11:53 PM 42.1 °F 39.2 °F 39.9 °F 92% 30.07 in 7.0 mi South 4.6 mph - 0.02 in Rain Light Rain